Regional Weather Roundup
Issued by NWS Jackson, KY

Home | Current Version | Previous Version | Text Only | Print | Product List | Glossary Off
Versions: 1 2 3 4 5 6 7 8 9 10 11 12 13 14 15 16 17 18 19 20 21 22 23 24 25 26 27 28 29 30 31 32 33 34 35 36 37 38 39 40 41 42 43 44 45 46 47 48 49 50

000
ASUS43 KJKL 301210
RWRJKL

EAST KENTUCKY HOURLY WEATHER ROUNDUP
NATIONAL WEATHER SERVICE JACKSON KY
800 AM EDT SAT MAY 30 2015

NOTE: "FAIR" INDICATES FEW OR NO CLOUDS BELOW 12,000 FEET WITH
NO SIGNIFICANT WEATHER AND/OR OBSTRUCTIONS TO VISIBILITY.

* THESE REPORTS ARE NOT UNDER NWS QUALITY CONTROL AND MAY NOT
  REPORT WEATHER SUCH AS PRECIPITATION AND FOG.

KYZ079-080-083-085-087-088-110-112-115-119-120-301300
...EASTERN KENTUCKY...

CITY           SKY/WX    TMP DP  RH WIND       PRES   REMARKS
JACKSON        CLOUDY    69  63  81 CALM      30.17R
6HR MIN TEMP:  67; 6HR MAX TEMP:  70;

LONDON         LGT RAIN  69  63  81 CALM      30.16R
6HR MIN TEMP:  66; 6HR MAX TEMP:  69; 6HR PCP: TRACE;

SOMERSET*      PTSUNNY   68  64  88 CALM      30.15S
MONTICELLO*    CLOUDY    72  66  81 S5        30.16S
6HR MIN TEMP:  69; 6HR MAX TEMP:  72;

MIDDLESBORO*   MOSUNNY   66  65  96 CALM      30.19S
6HR MIN TEMP:  64; 6HR MAX TEMP:  67;

HARLAN APT*    CLOUDY    63  63 100 CALM      30.21R
HAZARD APT*    CLOUDY    68  66  94 CALM      30.18R
BLACK MTN*       N/A    N/A N/A N/A S2          N/A
PIKEVILLE APT* SUNNY     68  63  83 SE3       30.19R
BIG SANDY*     PTSUNNY   72  65  81 S5        30.17S
6HR MIN TEMP:  66; 6HR MAX TEMP:  72;

MOREHEAD APT*  PTSUNNY   68  66  94 S6        30.16R
$$

KYZ035-036-041-042-044-050-067-078-099-301300
...CENTRAL KENTUCKY...

CITY           SKY/WX    TMP DP  RH WIND       PRES   REMARKS
MT STERLING*   PTSUNNY   72  66  83 SW7       30.15R
FLEMING/MASON* MOSUNNY   72  66  83 S8        30.13S
DANVILLE*      PTSUNNY   68  64  88 S6        30.13S
RICHMOND*      PTSUNNY   72  63  73 S7        30.13S
LEXINGTON      CLOUDY    71  65  81 S9        30.11S
6HR MIN TEMP:  68; 6HR MAX TEMP:  71;

FRANKFORT      MOSUNNY   71  64  78 S7        30.09S
6HR MIN TEMP:  68; 6HR MAX TEMP:  71;

$$

KYZ091>093-OHZ055-061-077-WVZ005-015-034-035-042-301300
...SOUTHERN OHIO/WEST VIRGINIA...

CITY           SKY/WX    TMP DP  RH WIND       PRES   REMARKS
COVINGTON      PTSUNNY   71  65  81 S7        30.09R
COLUMBUS       PTSUNNY   72  66  81 S9        30.09R
DAYTON         MOSUNNY   71  66  84 SW13      30.08S
WILMINGTON     CLOUDY    69  64  84 S8        30.09S
HUNTINGTON     PTSUNNY   69  66  90 S5        30.14R
CHARLESTON     DRIZZLE   66  64  93 CALM      30.16R
PINEVILLE*     PTSUNNY   64  64 100 MISG      30.27S
BECKLEY        CLOUDY    66  61  84 SE7       30.25R
BLUEFIELD      MOSUNNY   69  61  75 CALM      30.28R
$$

VAZ002-007-008-TNZ017-027-036-066-071-301300
...SOUTHWEST VIRGINIA/EAST TENNESSEE...

CITY           SKY/WX    TMP DP  RH WIND       PRES   REMARKS
WISE*          SUNNY     68  63  83 S6        30.27R
JONESVILLE*    MOSUNNY   63  63 100 CALM      30.23R
ABINGDON*      SUNNY     67  64  90 E7        30.24S
BRISTOL        MOSUNNY   66  63  90 CALM      30.22R
KNOXVILLE      PTSUNNY   65  64  97 E6        30.17R
OAK RIDGE      PTSUNNY   70  66  87 CALM      30.19R
CROSSVILLE     PTSUNNY   68  62  81 S3        30.19S
NASHVILLE      MOSUNNY   71  65  81 S10       30.09R
$$

...KEY TO REMARKS...
VSB - VISIBILITY IN MILES
WCI - WIND CHILL INDEX
HX  - HEAT INDEX

$$



USA.gov is the U.S. government's official web portal to all federal, state and local government web resources and services.